Overview Statistics Trail Chart Weather Telemetry Raw packets
 

This is the latest recevied weather packets stored in our database for station/object EA5GTE-12. If no packets are shown the sender has not sent any weather packets the latest 10 day(s).

<< 14 15 16 17 18 19 20 >>
Time Temp. Humidity Pressure Rain* Wind** Luminosity Snow
1788257319 26.11° C 90% 943.8 hPa - - - -
1788256419 26.11° C 93% 943.7 hPa - - - -
1788255518 25.56° C 98% 943.8 hPa - - - -
1788254618 24.44° C 100% 943.9 hPa - - - -
1788253718 23.89° C 100% 943.8 hPa - - - -
1788252818 23.89° C 100% 943.7 hPa - - - -
1788251918 22.78° C 100% 943.4 hPa - - - -
1788251018 22.78° C 100% 943.1 hPa - - - -
1788250118 22.78° C 100% 943.3 hPa - - - -
1788249218 22.22° C 100% 943.7 hPa - - - -
1788248318 21.67° C 100% 943.4 hPa - - - -
1788247418 22.22° C 100% 943.2 hPa - - - -
1788246517 22.22° C 100% 943.4 hPa - - - -
1788245626 21.11° C 100% 943.2 hPa - - - -
1788245617 21.11° C 100% 943.2 hPa - - - -
1788244717 20° C 100% 942.8 hPa - - - -
1788243817 20° C 100% 942.8 hPa - - - -
1788242917 18.89° C 100% 942.7 hPa - - - -
1788242017 18.89° C 100% 942.6 hPa - - - -
1788241117 18.89° C 100% 942.5 hPa - - - -
1788240217 18.89° C 100% 942.3 hPa - - - -
1788239317 19.44° C 100% 942.4 hPa - - - -
1788238417 18.89° C 100% 942.3 hPa - - - -
1788237517 18.89° C 100% 942.2 hPa - - - -
1788235715 19.44° C 100% 942.3 hPa - - - -

* Rain since midnight (hover to see other rain measurements)
** Current wind speed in m/s (hover to see current wind gust speed)